Location: Trout Lake
(45.9980°N, 121.5270°W)
Time: 20:16:08
(UTC-08:00)

Cosmos 2056 Rocket - Pass Details

Date: 06 December 2023
Orbit: 741 x 798 km, 74.0° (Epoch: 22 February)

Event Time Altitude Azimuth Distance (km) Brightness Sun altitude
Rises 18:45:52 0° 209° (SSW) 3,271 7.3 -24.3°
Reaches altitude 10° 18:48:17 10° 213° (SSW) 2,352 6.5 -24.7°
Maximum altitude 18:53:36 63° 294° (WNW) 889 3.9 -25.6°
Enters shadow 18:55:57 33° 4° (N) 1,318 4.6 -26.0°
